Time,TemperatureF,DewpointF,PressureIn,WindDirection,WindDirectionDegrees,WindSpeedMPH,WindSpeedGustMPH,Humidity,HourlyPrecipIn,Conditions,Clouds,dailyrainin,SoftwareType,DateUTC
2013-04-26 00:00:00,41.7,40.0,30.35,SSW,211,0.0,0.0,95,0.00,,,0.00,weatherlink.com 1.10,2013-04-26 05:00:00,
2013-04-26 00:15:00,41.7,40.0,30.35,SSW,211,0.0,0.0,95,0.00,,,0.00,weatherlink.com 1.10,2013-04-26 05:15:00,
2013-04-26 00:30:00,41.7,40.0,30.36,SSW,211,0.0,0.0,95,0.00,,,0.00,weatherlink.com 1.10,2013-04-26 05:30:00,
2013-04-26 00:45:00,41.6,40.0,30.36,SSW,211,0.0,0.0,95,0.00,,,0.00,weatherlink.com 1.10,2013-04-26 05:45:00,
2013-04-26 01:00:00,41.4,40.0,30.35,SSW,211,0.0,0.0,95,0.00,,,0.00,weatherlink.com 1.10,2013-04-26 06:00:00,
2013-04-26 01:16:00,41.3,40.0,30.36,SSW,211,0.0,0.0,95,0.00,,,0.00,weatherlink.com 1.10,2013-04-26 06:16:00,
2013-04-26 01:31:00,40.9,40.0,30.35,SSW,211,0.0,0.0,95,0.00,,,0.00,weatherlink.com 1.10,2013-04-26 06:31:00,
2013-04-26 01:46:00,40.7,39.0,30.34,SSW,211,0.0,0.0,95,0.00,,,0.00,weatherlink.com 1.10,2013-04-26 06:46:00,
2013-04-26 02:01:00,40.5,39.0,30.34,SSW,211,0.0,0.0,95,0.00,,,0.00,weatherlink.com 1.10,2013-04-26 07:01:00,
2013-04-26 02:16:00,40.4,39.0,30.35,SSW,211,0.0,0.0,95,0.00,,,0.00,weatherlink.com 1.10,2013-04-26 07:16:00,
2013-04-26 02:31:00,40.3,39.0,30.34,SSW,211,0.0,0.0,95,0.00,,,0.00,weatherlink.com 1.10,2013-04-26 07:31:00,
2013-04-26 02:46:00,40.3,39.0,30.34,SSW,211,0.0,0.0,96,0.00,,,0.00,weatherlink.com 1.10,2013-04-26 07:46:00,
2013-04-26 03:01:00,40.2,39.0,30.34,SSW,211,0.0,0.0,96,0.00,,,0.00,weatherlink.com 1.10,2013-04-26 08:01:00,
2013-04-26 03:16:00,40.1,39.0,30.34,SSW,211,0.0,0.0,96,0.00,,,0.00,weatherlink.com 1.10,2013-04-26 08:16:00,
2013-04-26 03:31:00,40.0,39.0,30.34,SSW,211,0.0,0.0,96,0.00,,,0.00,weatherlink.com 1.10,2013-04-26 08:31:00,
2013-04-26 03:46:00,40.1,39.0,30.34,SSW,211,0.0,0.0,96,0.00,,,0.00,weatherlink.com 1.10,2013-04-26 08:46:00,
2013-04-26 04:16:00,40.9,40.0,30.35,SSW,211,0.0,0.0,97,0.00,,,0.00,weatherlink.com 1.10,2013-04-26 09:16:00,
2013-04-26 04:31:00,41.4,41.0,30.34,SSW,211,0.0,0.0,97,0.00,,,0.00,weatherlink.com 1.10,2013-04-26 09:31:00,
2013-04-26 04:46:00,41.7,41.0,30.34,SSW,211,0.0,0.0,97,0.00,,,0.00,weatherlink.com 1.10,2013-04-26 09:46:00,
2013-04-26 05:01:00,41.9,41.0,30.34,SSW,211,0.0,0.0,97,0.00,,,0.00,weatherlink.com 1.10,2013-04-26 10:01:00,
2013-04-26 05:16:00,41.8,41.0,30.34,SSW,211,0.0,0.0,97,0.00,,,0.00,weatherlink.com 1.10,2013-04-26 10:16:00,
2013-04-26 05:31:00,41.5,41.0,30.33,SSW,211,0.0,0.0,96,0.00,,,0.00,weatherlink.com 1.10,2013-04-26 10:31:00,
2013-04-26 05:46:00,41.2,40.0,30.32,SSW,211,0.0,0.0,96,0.00,,,0.00,weatherlink.com 1.10,2013-04-26 10:46:00,
2013-04-26 06:01:00,41.2,40.0,30.31,ENE,73,0.0,2.0,97,0.00,,,0.00,weatherlink.com 1.10,2013-04-26 11:01:00,
2013-04-26 06:16:00,42.4,42.0,30.30,East,79,0.0,5.0,97,0.00,,,0.00,weatherlink.com 1.10,2013-04-26 11:16:00,
2013-04-26 06:31:00,43.7,42.0,30.30,ENE,69,0.0,3.0,95,0.00,,,0.00,weatherlink.com 1.10,2013-04-26 11:31:00,
2013-04-26 06:46:00,44.8,43.0,30.32,South,186,0.0,2.0,93,0.00,,,0.00,weatherlink.com 1.10,2013-04-26 11:46:00,
2013-04-26 07:01:00,45.7,44.0,30.34,SW,217,0.0,1.0,93,0.00,,,0.00,weatherlink.com 1.10,2013-04-26 12:01:00,
2013-04-26 07:16:00,46.7,45.0,30.34,SW,217,0.0,0.0,92,0.00,,,0.00,weatherlink.com 1.10,2013-04-26 12:16:00,
2013-04-26 07:31:00,48.2,45.0,30.36,NE,50,2.0,2.0,88,0.00,,,0.00,weatherlink.com 1.10,2013-04-26 12:31:00,
2013-04-26 07:46:00,49.4,44.0,30.36,NE,56,1.0,2.0,83,0.00,,,0.00,weatherlink.com 1.10,2013-04-26 12:46:00,
2013-04-26 08:01:00,50.2,44.0,30.38,ENE,66,0.0,4.0,78,0.00,,,0.00,weatherlink.com 1.10,2013-04-26 13:01:00,
2013-04-26 08:16:00,50.4,44.0,30.40,ENE,66,0.0,0.0,79,0.00,,,0.00,weatherlink.com 1.10,2013-04-26 13:16:00,
2013-04-26 08:32:00,50.4,46.0,30.41,ENE,66,0.0,0.0,84,0.00,,,0.00,weatherlink.com 1.10,2013-04-26 13:32:00,
2013-04-26 08:47:00,50.0,44.0,30.40,ENE,66,0.0,1.0,81,0.00,,,0.00,weatherlink.com 1.10,2013-04-26 13:47:00,
2013-04-26 09:02:00,50.3,45.0,30.41,SSW,196,0.0,2.0,82,0.00,,,0.00,weatherlink.com 1.10,2013-04-26 14:02:00,
2013-04-26 09:17:00,50.5,44.0,30.42,SSW,196,0.0,1.0,79,0.00,,,0.00,weatherlink.com 1.10,2013-04-26 14:17:00,
2013-04-26 09:32:00,50.8,45.0,30.44,SSW,213,1.0,2.0,80,0.00,,,0.00,weatherlink.com 1.10,2013-04-26 14:32:00,
2013-04-26 09:47:00,51.1,45.0,30.44,SSW,212,1.0,1.0,81,0.00,,,0.00,weatherlink.com 1.10,2013-04-26 14:47:00,
2013-04-26 10:02:00,51.3,46.0,30.44,SSW,212,0.0,0.0,82,0.00,,,0.00,weatherlink.com 1.10,2013-04-26 15:02:00,
2013-04-26 10:17:00,51.4,46.0,30.43,East,90,0.0,2.0,81,0.00,,,0.00,weatherlink.com 1.10,2013-04-26 15:17:00,
2013-04-26 10:32:00,51.4,47.0,30.43,East,88,0.0,1.0,84,0.00,,,0.00,weatherlink.com 1.10,2013-04-26 15:32:00,
2013-04-26 10:47:00,51.5,47.0,30.42,ENE,66,2.0,2.0,83,0.00,,,0.00,weatherlink.com 1.10,2013-04-26 15:47:00,
2013-04-26 11:02:00,51.6,47.0,30.42,NE,46,0.0,1.0,85,0.00,,,0.00,weatherlink.com 1.10,2013-04-26 16:02:00,
2013-04-26 11:17:00,51.3,48.0,30.41,NE,46,0.0,2.0,87,0.02,,,0.02,weatherlink.com 1.10,2013-04-26 16:17:00,
2013-04-26 11:32:00,50.7,47.0,30.40,NE,53,0.0,3.0,88,0.03,,,0.03,weatherlink.com 1.10,2013-04-26 16:32:00,
2013-04-26 11:47:00,50.7,48.0,30.40,ENE,68,0.0,4.0,89,0.04,,,0.04,weatherlink.com 1.10,2013-04-26 16:47:00,
2013-04-26 12:02:00,51.0,49.0,30.41,ENE,68,0.0,0.0,91,0.05,,,0.05,weatherlink.com 1.10,2013-04-26 17:02:00,
2013-04-26 12:17:00,51.4,49.0,30.40,ENE,68,0.0,1.0,90,0.03,,,0.05,weatherlink.com 1.10,2013-04-26 17:17:00,
2013-04-26 12:32:00,51.3,49.0,30.40,North,352,0.0,1.0,91,0.05,,,0.08,weatherlink.com 1.10,2013-04-26 17:32:00,
2013-04-26 12:47:00,51.2,49.0,30.40,WNW,302,0.0,1.0,93,0.05,,,0.09,weatherlink.com 1.10,2013-04-26 17:47:00,
2013-04-26 13:02:00,51.2,49.0,30.40,North,9,0.0,2.0,92,0.07,,,0.12,weatherlink.com 1.10,2013-04-26 18:02:00,
2013-04-26 13:17:00,51.1,49.0,30.39,North,9,0.0,0.0,93,0.09,,,0.14,weatherlink.com 1.10,2013-04-26 18:17:00,
2013-04-26 13:32:00,50.9,49.0,30.39,North,9,0.0,1.0,93,0.08,,,0.16,weatherlink.com 1.10,2013-04-26 18:32:00,
2013-04-26 13:47:00,51.0,49.0,30.39,ESE,113,1.0,1.0,93,0.08,,,0.17,weatherlink.com 1.10,2013-04-26 18:47:00,
2013-04-26 14:03:00,51.0,49.0,30.41,SW,224,1.0,3.0,94,0.06,,,0.18,weatherlink.com 1.10,2013-04-26 19:03:00,
2013-04-26 14:17:00,51.1,49.0,30.40,North,8,2.0,3.0,93,0.04,,,0.18,weatherlink.com 1.10,2013-04-26 19:17:00,
2013-04-26 14:32:00,50.9,49.0,30.42,SW,226,2.0,5.0,94,0.02,,,0.18,weatherlink.com 1.10,2013-04-26 19:32:00,
2013-04-26 14:47:00,51.0,49.0,30.41,SW,224,0.0,3.0,94,0.02,,,0.19,weatherlink.com 1.10,2013-04-26 19:47:00,
2013-04-26 15:02:00,51.1,50.0,30.42,West,262,0.0,1.0,95,0.03,,,0.21,weatherlink.com 1.10,2013-04-26 20:02:00,
2013-04-26 15:17:00,50.9,49.0,30.43,SW,224,0.0,1.0,94,0.04,,,0.22,weatherlink.com 1.10,2013-04-26 20:17:00,
2013-04-26 15:32:00,50.9,50.0,30.42,South,176,1.0,2.0,95,0.06,,,0.24,weatherlink.com 1.10,2013-04-26 20:32:00,
2013-04-26 15:47:00,51.0,50.0,30.38,ENE,57,1.0,4.0,95,0.07,,,0.26,weatherlink.com 1.10,2013-04-26 20:47:00,
2013-04-26 16:02:00,50.7,49.0,30.33,East,90,2.0,8.0,95,0.06,,,0.27,weatherlink.com 1.10,2013-04-26 21:02:00,
2013-04-26 16:17:00,50.3,49.0,30.31,ENE,76,4.0,11.0,95,0.05,,,0.27,weatherlink.com 1.10,2013-04-26 21:17:00,
2013-04-26 16:32:00,50.2,49.0,30.29,North,11,6.0,9.0,94,0.03,,,0.27,weatherlink.com 1.10,2013-04-26 21:32:00,
2013-04-26 16:47:00,50.1,49.0,30.26,East,82,4.0,12.0,94,0.01,,,0.27,weatherlink.com 1.10,2013-04-26 21:47:00,
2013-04-26 17:02:00,49.9,48.0,30.27,ENE,74,2.0,13.0,93,0.00,,,0.27,weatherlink.com 1.10,2013-04-26 22:02:00,
2013-04-26 17:17:00,50.0,48.0,30.29,NE,44,0.0,4.0,93,0.00,,,0.27,weatherlink.com 1.10,2013-04-26 22:17:00,
2013-04-26 17:32:00,50.0,48.0,30.29,ENE,59,4.0,4.0,94,0.00,,,0.27,weatherlink.com 1.10,2013-04-26 22:32:00,
2013-04-26 17:47:00,49.9,48.0,30.28,ENE,61,1.0,4.0,94,0.00,,,0.27,weatherlink.com 1.10,2013-04-26 22:47:00,
2013-04-26 18:02:00,49.9,49.0,30.29,NE,37,2.0,7.0,95,0.00,,,0.27,weatherlink.com 1.10,2013-04-26 23:02:00,
2013-04-26 18:17:00,50.1,49.0,30.30,ENE,64,0.0,3.0,95,0.00,,,0.27,weatherlink.com 1.10,2013-04-26 23:17:00,
2013-04-26 18:32:00,50.3,49.0,30.34,WSW,246,0.0,3.0,95,0.00,,,0.27,weatherlink.com 1.10,2013-04-26 23:32:00,
2013-04-26 18:47:00,50.3,49.0,30.31,WSW,246,0.0,1.0,95,0.00,,,0.27,weatherlink.com 1.10,2013-04-26 23:47:00,
2013-04-26 19:17:00,50.1,49.0,30.29,ENE,63,0.0,4.0,95,0.02,,,0.29,weatherlink.com 1.10,2013-04-27 00:17:00,
2013-04-26 19:32:00,50.0,49.0,30.31,NE,43,0.0,1.0,95,0.02,,,0.29,weatherlink.com 1.10,2013-04-27 00:32:00,
2013-04-26 19:47:00,50.0,49.0,30.31,NE,54,0.0,2.0,96,0.02,,,0.29,weatherlink.com 1.10,2013-04-27 00:47:00,
2013-04-26 20:02:00,49.9,49.0,30.32,NE,54,0.0,0.0,96,0.01,,,0.29,weatherlink.com 1.10,2013-04-27 01:02:00,
2013-04-26 20:17:00,49.9,49.0,30.32,NE,54,0.0,1.0,96,0.00,,,0.29,weatherlink.com 1.10,2013-04-27 01:17:00,
2013-04-26 20:32:00,49.7,49.0,30.30,NE,40,0.0,2.0,96,0.00,,,0.29,weatherlink.com 1.10,2013-04-27 01:32:00,
2013-04-26 20:47:00,49.7,49.0,30.32,ENE,59,0.0,2.0,96,0.00,,,0.29,weatherlink.com 1.10,2013-04-27 01:47:00,
2013-04-26 21:02:00,49.7,49.0,30.34,ENE,59,0.0,1.0,96,0.00,,,0.29,weatherlink.com 1.10,2013-04-27 02:02:00,
2013-04-26 21:17:00,49.6,49.0,30.34,ENE,59,0.0,0.0,96,0.01,,,0.30,weatherlink.com 1.10,2013-04-27 02:17:00,
2013-04-26 21:32:00,49.6,49.0,30.33,NE,39,2.0,2.0,96,0.06,,,0.35,weatherlink.com 1.10,2013-04-27 02:32:00,
2013-04-26 22:02:00,49.3,48.0,30.30,ENE,70,2.0,5.0,96,0.13,,,0.42,weatherlink.com 1.10,2013-04-27 03:02:00,
2013-04-26 22:17:00,49.2,48.0,30.30,ENE,61,0.0,4.0,96,0.12,,,0.42,weatherlink.com 1.10,2013-04-27 03:17:00,
2013-04-26 22:32:00,49.1,48.0,30.30,ENE,58,0.0,4.0,96,0.07,,,0.42,weatherlink.com 1.10,2013-04-27 03:32:00,
2013-04-26 22:47:00,49.1,48.0,30.30,ENE,73,1.0,4.0,96,0.02,,,0.43,weatherlink.com 1.10,2013-04-27 03:47:00,
2013-04-26 23:03:00,49.1,48.0,30.31,NNE,29,0.0,2.0,96,0.01,,,0.43,weatherlink.com 1.10,2013-04-27 04:03:00,
2013-04-26 23:17:00,49.2,48.0,30.32,NE,50,0.0,3.0,97,0.02,,,0.44,weatherlink.com 1.10,2013-04-27 04:17:00,
2013-04-26 23:32:00,49.2,48.0,30.34,NE,50,0.0,0.0,97,0.05,,,0.47,weatherlink.com 1.10,2013-04-27 04:32:00,
2013-04-26 23:47:00,49.1,48.0,30.29,ENE,70,2.0,3.0,97,0.07,,,0.50,weatherlink.com 1.10,2013-04-27 04:47:00,